• In Lithuania
  • List of Countries
  • For 7 days
  • Water Temperature
  • Satellite Maps
  • Weather Map
  • Weather Widgets
  • user-avatar
    Login

    Hourly Weather Lucena

    Today, 24 November, Friday

    Time Temperature Precipitation Wind Pressure Humidity
    00:00 +14°C° 0 mm 1 mps 718 mmHg 40%
    01:00 +14°C° 0 mm 1 mps 718 mmHg 40%
    02:00 +13°C° 0 mm 1 mps 718 mmHg 40%
    03:00 +13°C° 0 mm 1 mps 718 mmHg 40%
    04:00 +13°C° 0 mm 1 mps 718 mmHg 40%
    05:00 +13°C° 0 mm 1 mps 718 mmHg 40%
    06:00 +12°C° 0 mm 1 mps 718 mmHg 40%
    07:00 +14°C° 0 mm 1 mps 718 mmHg 38%
    08:00 +15°C° 0 mm 1 mps 718 mmHg 36%
    09:00 +16°C° 0 mm 1 mps 719 mmHg 34%
    10:00 +19°C° 0 mm 1 mps 719 mmHg 31%
    11:00 +21°C° 0 mm 1 mps 719 mmHg 28%
    12:00 +22°C° 0 mm 1 mps 719 mmHg 24%
    13:00 +23°C° 0 mm 1 mps 719 mmHg 24%
    14:00 +23°C° 0 mm 2 mps 718 mmHg 23%
    15:00 +23°C° 0 mm 2 mps 718 mmHg 23%
    16:00 +21°C° 0 mm 1 mps 718 mmHg 27%
    17:00 +19°C° 0 mm 1 mps 718 mmHg 31%
    18:00 +16°C° 0 mm 1 mps 718 mmHg 35%
    19:00 +16°C° 0 mm 1 mps 718 mmHg 35%
    20:00 +15°C° 0 mm 1 mps 718 mmHg 36%
    21:00 +15°C° 0 mm 1 mps 718 mmHg 37%
    22:00 +15°C° 0 mm 1 mps 718 mmHg 37%
    23:00 +14°C° 0 mm 1 mps 718 mmHg 38%

    Tomorrow, 25 November, Saturday

    Time Temperature Precipitation Wind Pressure Humidity
    00:00 +14°C° 0 mm 1 mps 718 mmHg 38%
    01:00 +14°C° 0 mm 1 mps 718 mmHg 38%
    02:00 +13°C° 0 mm 1 mps 718 mmHg 38%
    03:00 +13°C° 0 mm 1 mps 718 mmHg 39%
    04:00 +13°C° 0 mm 1 mps 718 mmHg 39%
    05:00 +13°C° 0 mm 1 mps 718 mmHg 38%
    06:00 +13°C° 0 mm 1 mps 718 mmHg 38%
    07:00 +14°C° 0 mm 1 mps 718 mmHg 37%
    08:00 +15°C° 0 mm 1 mps 719 mmHg 35%
    09:00 +16°C° 0 mm 1 mps 719 mmHg 34%
    10:00 +19°C° 0 mm 1 mps 719 mmHg 30%
    11:00 +20°C° 0 mm 1 mps 719 mmHg 27%
    12:00 +22°C° 0 mm 1 mps 719 mmHg 24%
    13:00 +22°C° 0 mm 1 mps 719 mmHg 24%
    14:00 +22°C° 0 mm 1 mps 719 mmHg 24%
    15:00 +23°C° 0 mm 1 mps 718 mmHg 24%
    16:00 +21°C° 0 mm 1 mps 718 mmHg 27%
    17:00 +19°C° 0 mm 1 mps 718 mmHg 31%
    18:00 +16°C° 0 mm 1 mps 718 mmHg 34%
    19:00 +16°C° 0 mm 1 mps 718 mmHg 34%
    20:00 +16°C° 0 mm 1 mps 719 mmHg 34%
    21:00 +15°C° 0 mm 1 mps 719 mmHg 34%
    22:00 +15°C° 0 mm 1 mps 719 mmHg 34%
    23:00 +15°C° 0 mm 1 mps 719 mmHg 34%

    Day after tomorrow, 26 November, Sunday

    Time Temperature Precipitation Wind Pressure Humidity
    00:00 +15°C° 0 mm 1 mps 719 mmHg 34%
    01:00 +15°C° 0 mm 1 mps 719 mmHg 36%
    02:00 +15°C° 0 mm 1 mps 719 mmHg 38%
    03:00 +15°C° 0 mm 1 mps 720 mmHg 40%
    04:00 +14°C° 0 mm 1 mps 720 mmHg 41%
    05:00 +14°C° 0 mm 1 mps 720 mmHg 43%
    06:00 +14°C° 0 mm 1 mps 720 mmHg 44%
    07:00 +14°C° 0 mm 1 mps 720 mmHg 44%
    08:00 +15°C° 0 mm 1 mps 721 mmHg 43%
    09:00 +15°C° 0 mm 1 mps 721 mmHg 43%
    10:00 +17°C° 0 mm 2 mps 721 mmHg 42%
    11:00 +18°C° 0 mm 2 mps 722 mmHg 41%
    12:00 +19°C° 0 mm 2 mps 722 mmHg 40%
    13:00 +19°C° 0 mm 2 mps 722 mmHg 42%
    14:00 +19°C° 0 mm 2 mps 721 mmHg 44%
    15:00 +19°C° 0 mm 2 mps 721 mmHg 46%
    16:00 +18°C° 0.1 mm 2 mps 721 mmHg 53%
    17:00 +18°C° 0.1 mm 1 mps 721 mmHg 60%
    18:00 +15°C° 0.1 mm 1 mps 721 mmHg 66%
    19:00 +15°C° 0 mm 1 mps 721 mmHg 70%
    20:00 +15°C° 0 mm 2 mps 721 mmHg 74%
    21:00 +14°C° 0 mm 2 mps 721 mmHg 78%
    22:00 +14°C° 0.1 mm 2 mps 721 mmHg 79%
    23:00 +14°C° 0.1 mm 2 mps 721 mmHg 81%

    27 November, Monday

    Time Temperature Precipitation Wind Pressure Humidity
    00:00 +14°C° 0.1 mm 2 mps 721 mmHg 83%
    01:00 +14°C° 0.1 mm 2 mps 721 mmHg 83%
    02:00 +13°C° 0.1 mm 1 mps 721 mmHg 84%
    03:00 +13°C° 0.1 mm 1 mps 721 mmHg 85%
    04:00 +13°C° 0.2 mm 1 mps 721 mmHg 85%
    05:00 +13°C° 0.2 mm 1 mps 721 mmHg 86%
    06:00 +13°C° 0.2 mm 1 mps 721 mmHg 87%
    07:00 +13°C° 0.6 mm 1 mps 721 mmHg 86%
    08:00 +13°C° 0.6 mm 1 mps 721 mmHg 84%
    09:00 +13°C° 0.6 mm 2 mps 721 mmHg 83%
    10:00 +14°C° 0.1 mm 2 mps 721 mmHg 77%
    11:00 +15°C° 0.1 mm 2 mps 721 mmHg 71%
    12:00 +16°C° 0.1 mm 2 mps 721 mmHg 65%
    13:00 +17°C° 0 mm 2 mps 720 mmHg 64%
    14:00 +17°C° 0 mm 2 mps 720 mmHg 64%
    15:00 +17°C° 0 mm 2 mps 719 mmHg 63%
    16:00 +16°C° 0 mm 2 mps 719 mmHg 67%
    17:00 +15°C° 0 mm 2 mps 719 mmHg 72%
    18:00 +14°C° 0 mm 2 mps 719 mmHg 77%
    19:00 +14°C° 0.1 mm 1 mps 719 mmHg 78%
    20:00 +14°C° 0.1 mm 1 mps 720 mmHg 80%
    21:00 +14°C° 0.1 mm 1 mps 720 mmHg 81%
    22:00 +13°C° 0 mm 1 mps 719 mmHg 82%
    23:00 +13°C° 0 mm 2 mps 719 mmHg 82%

    28 November, Tuesday

    Time Temperature Precipitation Wind Pressure Humidity
    00:00 +13°C° 0 mm 2 mps 719 mmHg 83%
    01:00 +13°C° 0.3 mm 2 mps 719 mmHg 84%
    02:00 +13°C° 0.3 mm 1 mps 718 mmHg 85%
    03:00 +13°C° 0.3 mm 1 mps 718 mmHg 86%
    04:00 +13°C° 0.7 mm 2 mps 718 mmHg 87%
    05:00 +13°C° 0.7 mm 2 mps 718 mmHg 88%
    06:00 +13°C° 0.7 mm 2 mps 717 mmHg 88%
    07:00 +13°C° 0.4 mm 2 mps 718 mmHg 87%
    08:00 +13°C° 0.4 mm 2 mps 718 mmHg 85%
    09:00 +13°C° 0.4 mm 2 mps 718 mmHg 83%
    10:00 +14°C° 0.8 mm 2 mps 718 mmHg 82%
    11:00 +14°C° 0.8 mm 2 mps 717 mmHg 80%
    12:00 +15°C° 0.8 mm 2 mps 717 mmHg 78%
    13:00 +14°C° 0.4 mm 3 mps 717 mmHg 77%
    14:00 +14°C° 0.4 mm 3 mps 716 mmHg 76%
    15:00 +14°C° 0.4 mm 3 mps 716 mmHg 75%
    16:00 +13°C° 0.3 mm 3 mps 716 mmHg 78%
    17:00 +14°C° 0.3 mm 2 mps 716 mmHg 81%
    18:00 +13°C° 0.3 mm 2 mps 715 mmHg 84%
    19:00 +13°C° 0.4 mm 2 mps 715 mmHg 84%
    20:00 +13°C° 0.4 mm 2 mps 715 mmHg 84%
    21:00 +13°C° 0.4 mm 2 mps 715 mmHg 84%
    22:00 +13°C° 0.4 mm 2 mps 715 mmHg 84%
    23:00 +13°C° 0.4 mm 2 mps 715 mmHg 85%

    29 November, Wednesday

    Time Temperature Precipitation Wind Pressure Humidity
    00:00 +13°C° 0.4 mm 2 mps 714 mmHg 86%
    01:00 +13°C° 0.2 mm 2 mps 714 mmHg 86%
    02:00 +13°C° 0.2 mm 2 mps 714 mmHg 87%
    03:00 +12°C° 0.2 mm 2 mps 713 mmHg 87%
    04:00 +13°C° 0.4 mm 2 mps 713 mmHg 87%
    05:00 +13°C° 0.4 mm 2 mps 713 mmHg 88%
    06:00 +13°C° 0.4 mm 1 mps 713 mmHg 88%
    07:00 +13°C° 0.4 mm 1 mps 713 mmHg 86%
    08:00 +14°C° 0.4 mm 1 mps 713 mmHg 84%
    09:00 +14°C° 0.4 mm 1 mps 713 mmHg 82%
    10:00 +15°C° 0.7 mm 1 mps 713 mmHg 81%
    11:00 +15°C° 0.7 mm 1 mps 713 mmHg 79%
    12:00 +16°C° 0.7 mm 1 mps 713 mmHg 77%
    13:00 +16°C° 0.6 mm 1 mps 713 mmHg 78%
    14:00 +16°C° 0.6 mm 1 mps 712 mmHg 79%
    15:00 +16°C° 0.6 mm 1 mps 712 mmHg 79%
    16:00 +15°C° 0.4 mm 1 mps 712 mmHg 83%
    17:00 +15°C° 0.4 mm 1 mps 712 mmHg 86%
    18:00 +14°C° 0.4 mm 1 mps 712 mmHg 89%
    19:00 +14°C° 0.3 mm 1 mps 712 mmHg 90%
    20:00 +14°C° 0.3 mm 1 mps 712 mmHg 90%
    21:00 +14°C° 0.3 mm 1 mps 713 mmHg 91%
    22:00 +14°C° 0.1 mm 1 mps 713 mmHg 91%
    23:00 +14°C° 0.1 mm 1 mps 713 mmHg 91%
    Show more